User: anonymous   Login
Location: Poughquag
(41.6090°N, 73.6820°W)
Time: 11:25:33
(UTC-04:00)
Language:

STARLINK-1343 - Orbit

View from above orbital plane
View from above orbital plane
View from above satellite
View from above satellite

Ground track
Ground track

The orbit data is extracted from the following two-line orbital elements,

1 45584C 20025BF  20221.47927075 -.01133866  00000-0 -33118-1 0  2218
2 45584  52.9988 232.3490 0001484  54.2174  51.4715 15.35885190    11
Epoch (UTC): 08 August 2020 11:30:08
Eccentricity: 0.0001484
inclination: 52.9988°
perigee height: 457 km
apogee height: 459 km
right ascension of ascending node: 232.3490°
argument of perigee: 54.2174°
revolutions per day: 15.35885190
mean anomaly at epoch: 51.4715°
orbit number at epoch: 1

The dashed part of the orbit path shows where the satellite is in the earth's shadow,  

DLR